User: anonymous
Location: SAPM � Hemmingford
(45.0500°N, 73.5833°W)
Time: 08:27:32
(UTC-04:00)
Language:

Cosmos 1674 Rocket - Orbit

View from above orbital plane
View from above orbital plane
View from above satellite
View from above satellite

Ground track
Ground track

The orbit data is extracted from the following two-line orbital elements,

1 15945U 85069B   14275.12039234  .00000484  00000-0  55924-4 0  7819
2 15945 082.5290 339.0769 0018492 307.1186 067.0977 14.83420042574379
Epoch (UTC): 02 October 2014 02:53:21
Eccentricity: 0.0018492
inclination: 82.5290°
perigee height: 605 km
apogee height: 631 km
right ascension of ascending node: 339.0769°
argument of perigee: 307.1186°
revolutions per day: 14.83420042
mean anomaly at epoch: 67.0977°
orbit number at epoch: 57437

The dashed part of the orbit path shows where the satellite is in the earth's shadow,  

DLR